When you browse on this site, cookies collect data to enhance your experience and personalize the content and advertising you see.
Visit our Privacy Policy to learn more. By continuing to use the site, you agree to this use of cookies and data.
  • En España
  • Lista de países
  • Para 7 días
  • Temperatura del agua
  • Mapa Satelital
  • El tiempo en el mapa
  • Informadores
  • user-avatar
    Iniciar sesión

    Tiempo cada hora Caipan

    Hoy, 19 Febrero, Martes

    Tiempo Temperatura Precipitaciones Viento Presión Humedad
    00:00 +22°C° 0 mm 1 mps 668 mmHg 93%
    01:00 +22°C° 0 mm 1 mps 668 mmHg 93%
    02:00 +22°C° 0 mm 1 mps 667 mmHg 93%
    03:00 +22°C° 0 mm 1 mps 667 mmHg 93%
    04:00 +21°C° 0 mm 1 mps 667 mmHg 93%
    05:00 +19°C° 0 mm 0 mps 667 mmHg 93%
    06:00 +18°C° 0 mm 0 mps 667 mmHg 93%
    07:00 +20°C° 0 mm 0 mps 667 mmHg 86%
    08:00 +23°C° 0 mm 1 mps 668 mmHg 79%
    09:00 +25°C° 0 mm 1 mps 669 mmHg 72%
    10:00 +27°C° 0 mm 1 mps 669 mmHg 60%
    11:00 +29°C° 0 mm 2 mps 669 mmHg 48%
    12:00 +32°C° 0 mm 2 mps 669 mmHg 35%
    13:00 +32°C° 0 mm 2 mps 669 mmHg 31%
    14:00 +34°C° 0 mm 2 mps 668 mmHg 27%
    15:00 +35°C° 0 mm 2 mps 667 mmHg 23%
    16:00 +32°C° 0 mm 2 mps 667 mmHg 26%
    17:00 +31°C° 0 mm 2 mps 666 mmHg 29%
    18:00 +29°C° 0 mm 1 mps 666 mmHg 32%
    19:00 +27°C° 0 mm 1 mps 666 mmHg 35%
    20:00 +24°C° 0 mm 1 mps 666 mmHg 38%
    21:00 +22°C° 0 mm 1 mps 666 mmHg 41%
    22:00 +21°C° 0 mm 1 mps 666 mmHg 36%
    23:00 +21°C° 0 mm 1 mps 666 mmHg 32%

    Mañana, 20 Febrero, Miércoles

    Tiempo Temperatura Precipitaciones Viento Presión Humedad
    00:00 +21°C° 0 mm 1 mps 666 mmHg 27%
    01:00 +19°C° 0 mm 2 mps 665 mmHg 28%
    02:00 +19°C° 0 mm 2 mps 665 mmHg 28%
    03:00 +19°C° 0 mm 2 mps 664 mmHg 29%
    04:00 +18°C° 0 mm 2 mps 664 mmHg 35%
    05:00 +18°C° 0 mm 2 mps 664 mmHg 42%
    06:00 +18°C° 0 mm 2 mps 664 mmHg 48%
    07:00 +20°C° 0 mm 2 mps 665 mmHg 45%
    08:00 +23°C° 0 mm 2 mps 666 mmHg 41%
    09:00 +25°C° 0 mm 3 mps 667 mmHg 37%
    10:00 +28°C° 0 mm 2 mps 667 mmHg 31%
    11:00 +30°C° 0 mm 2 mps 667 mmHg 25%
    12:00 +32°C° 0 mm 2 mps 667 mmHg 19%
    13:00 +34°C° 0 mm 2 mps 667 mmHg 18%
    14:00 +34°C° 0 mm 2 mps 666 mmHg 17%
    15:00 +35°C° 0 mm 2 mps 665 mmHg 17%
    16:00 +32°C° 0 mm 2 mps 665 mmHg 22%
    17:00 +30°C° 0 mm 2 mps 665 mmHg 28%
    18:00 +29°C° 0 mm 2 mps 665 mmHg 34%
    19:00 +26°C° 0.2 mm 2 mps 665 mmHg 49%
    20:00 +24°C° 0.2 mm 1 mps 665 mmHg 63%
    21:00 +21°C° 0.2 mm 1 mps 665 mmHg 78%
    22:00 +21°C° 0 mm 1 mps 665 mmHg 81%
    23:00 +20°C° 0 mm 1 mps 665 mmHg 85%

    Pasado mañana, 21 Febrero, Jueves

    Tiempo Temperatura Precipitaciones Viento Presión Humedad
    00:00 +18°C° 0 mm 0 mps 666 mmHg 88%
    01:00 +19°C° 0 mm 1 mps 665 mmHg 86%
    02:00 +18°C° 0 mm 1 mps 665 mmHg 84%
    03:00 +18°C° 0 mm 1 mps 664 mmHg 82%
    04:00 +18°C° 0 mm 1 mps 664 mmHg 75%
    05:00 +16°C° 0 mm 1 mps 664 mmHg 68%
    06:00 +16°C° 0 mm 1 mps 664 mmHg 62%
    07:00 +20°C° 0 mm 1 mps 666 mmHg 53%
    08:00 +23°C° 0 mm 1 mps 667 mmHg 44%
    09:00 +25°C° 0 mm 1 mps 668 mmHg 35%
    10:00 +27°C° 0 mm 1 mps 668 mmHg 31%
    11:00 +29°C° 0 mm 1 mps 668 mmHg 28%
    12:00 +31°C° 0 mm 1 mps 668 mmHg 24%
    13:00 +32°C° 0 mm 1 mps 668 mmHg 24%
    14:00 +32°C° 0 mm 1 mps 667 mmHg 23%
    15:00 +34°C° 0 mm 2 mps 666 mmHg 23%
    16:00 +31°C° 0 mm 2 mps 666 mmHg 29%
    17:00 +30°C° 0 mm 2 mps 665 mmHg 35%
    18:00 +28°C° 0 mm 2 mps 665 mmHg 41%
    19:00 +26°C° 0.1 mm 2 mps 665 mmHg 55%
    20:00 +24°C° 0.1 mm 1 mps 665 mmHg 69%
    21:00 +22°C° 0.1 mm 1 mps 666 mmHg 82%
    22:00 +21°C° 0 mm 1 mps 666 mmHg 84%
    23:00 +20°C° 0 mm 1 mps 666 mmHg 86%

    22 Febrero, Viernes

    Tiempo Temperatura Precipitaciones Viento Presión Humedad
    00:00 +18°C° 0 mm 0 mps 666 mmHg 87%
    01:00 +19°C° 0 mm 1 mps 665 mmHg 84%
    02:00 +19°C° 0 mm 1 mps 665 mmHg 81%
    03:00 +18°C° 0 mm 1 mps 664 mmHg 78%
    04:00 +18°C° 0 mm 1 mps 665 mmHg 73%
    05:00 +18°C° 0 mm 1 mps 665 mmHg 67%
    06:00 +16°C° 0 mm 1 mps 665 mmHg 62%
    07:00 +20°C° 0 mm 1 mps 666 mmHg 52%
    08:00 +21°C° 0 mm 0 mps 668 mmHg 41%
    09:00 +24°C° 0 mm 0 mps 669 mmHg 31%
    10:00 +26°C° 0 mm 0 mps 669 mmHg 27%
    11:00 +30°C° 0 mm 1 mps 669 mmHg 23%
    12:00 +32°C° 0 mm 1 mps 669 mmHg 20%
    13:00 +33°C° 0 mm 1 mps 669 mmHg 20%
    14:00 +34°C° 0 mm 2 mps 668 mmHg 21%
    15:00 +34°C° 0 mm 2 mps 667 mmHg 21%
    16:00 +32°C° 0.1 mm 2 mps 667 mmHg 30%
    17:00 +30°C° 0.1 mm 2 mps 667 mmHg 39%
    18:00 +28°C° 0.1 mm 2 mps 666 mmHg 47%
    19:00 +26°C° 0.3 mm 2 mps 667 mmHg 60%
    20:00 +24°C° 0.3 mm 2 mps 667 mmHg 73%
    21:00 +22°C° 0.3 mm 1 mps 667 mmHg 86%
    22:00 +21°C° 0 mm 1 mps 667 mmHg 88%
    23:00 +21°C° 0 mm 1 mps 667 mmHg 89%

    23 Febrero, Sábado

    Tiempo Temperatura Precipitaciones Viento Presión Humedad
    00:00 +21°C° 0 mm 1 mps 667 mmHg 91%
    01:00 +20°C° 0 mm 1 mps 667 mmHg 89%
    02:00 +20°C° 0 mm 1 mps 666 mmHg 86%
    03:00 +19°C° 0 mm 1 mps 666 mmHg 84%
    04:00 +19°C° 0 mm 1 mps 666 mmHg 80%
    05:00 +19°C° 0 mm 1 mps 666 mmHg 77%
    06:00 +19°C° 0 mm 1 mps 666 mmHg 74%
    07:00 +21°C° 0 mm 1 mps 667 mmHg 65%
    08:00 +24°C° 0 mm 2 mps 668 mmHg 56%
    09:00 +26°C° 0 mm 2 mps 669 mmHg 47%
    10:00 +28°C° 0 mm 2 mps 670 mmHg 41%
    11:00 +30°C° 0 mm 2 mps 670 mmHg 35%
    12:00 +32°C° 0 mm 2 mps 670 mmHg 29%
    13:00 +32°C° 0.1 mm 1 mps 669 mmHg 30%
    14:00 +32°C° 0.1 mm 1 mps 669 mmHg 31%
    15:00 +32°C° 0.1 mm 1 mps 668 mmHg 33%
    16:00 +30°C° 0.8 mm 2 mps 668 mmHg 40%
    17:00 +29°C° 0.8 mm 2 mps 668 mmHg 47%
    18:00 +27°C° 0.8 mm 2 mps 667 mmHg 55%
    19:00 +26°C° 0.8 mm 2 mps 668 mmHg 64%
    20:00 +24°C° 0.8 mm 2 mps 668 mmHg 73%
    21:00 +22°C° 0.8 mm 1 mps 668 mmHg 82%
    22:00 +21°C° 0.3 mm 1 mps 668 mmHg 84%
    23:00 +21°C° 0.3 mm 1 mps 668 mmHg 85%

    24 Febrero, Domingo

    Tiempo Temperatura Precipitaciones Viento Presión Humedad
    00:00 +20°C° 0.3 mm 1 mps 668 mmHg 86%
    01:00 +20°C° 0 mm 1 mps 667 mmHg 85%
    02:00 +19°C° 0 mm 1 mps 667 mmHg 84%
    03:00 +19°C° 0 mm 1 mps 667 mmHg 83%
    04:00 +19°C° 0 mm 1 mps 667 mmHg 82%
    05:00 +18°C° 0 mm 1 mps 667 mmHg 81%
    06:00 +18°C° 0 mm 1 mps 667 mmHg 79%
    07:00 +21°C° 0 mm 1 mps 668 mmHg 69%
    08:00 +23°C° 0 mm 1 mps 669 mmHg 58%
    09:00 +26°C° 0 mm 1 mps 670 mmHg 47%
    10:00 +27°C° 0 mm 1 mps 670 mmHg 42%
    11:00 +29°C° 0 mm 2 mps 670 mmHg 36%
    12:00 +30°C° 0 mm 3 mps 670 mmHg 31%
    13:00 +30°C° 0 mm 3 mps 669 mmHg 33%
    14:00 +32°C° 0 mm 4 mps 668 mmHg 35%
    15:00 +32°C° 0 mm 4 mps 667 mmHg 37%
    16:00 +29°C° 0 mm 4 mps 667 mmHg 46%
    17:00 +27°C° 0 mm 4 mps 667 mmHg 55%
    18:00 +25°C° 0 mm 3 mps 666 mmHg 64%
    19:00 +24°C° 0 mm 3 mps 667 mmHg 72%
    20:00 +23°C° 0 mm 2 mps 667 mmHg 79%
    21:00 +20°C° 0 mm 2 mps 668 mmHg 87%
    22:00 +20°C° 0 mm 2 mps 668 mmHg 88%
    23:00 +21°C° 0 mm 1 mps 668 mmHg 89%
    Mostrar más